Flag for Germany Weather past 2 weeks in Marburg, Hesse, Germany

Now
80 °F

Sunny.


Feels Like: 82 °F
Forecast: 60 / 86 °F
Wind: 2 mph from Northeast

Location: Giessen

Current Time: Aug 29, 2015 at 7:20:43 PM

Latest Report: Aug 29, 2015 at 7:00 PM


Visibility: 44 mi

Pressure: 30.09 "Hg

Humidity: 59%

Dew point: 65 °F

Location of MarburgLocation

Historic Weather in Marburg — Graph

°F

Marburg temperature yesterday

Maximum temperature yesterday: 68 °F (at 5:00 PM)
Minimum temperature yesterday: 56 °F (at 7:00 AM)
Average temperature yesterday: 61 °F

Past Weeks' High & Low Weather Summary

 TemperatureHumidityPressure
High81 °F (Aug 29, 5:00 PM)100% (Aug 21, 8:00 AM)30.30 "Hg (Aug 21, 8:00 AM)
Low49 °F (Aug 19, 7:00 AM)28% (Aug 23, 5:00 PM)29.65 "Hg (Aug 24, 5:00 PM)
Average64 °F74%29.98 "Hg
* Reported Aug 14 6:00 PM — Aug 29 6:00 PM, Marburg, Weather by CustomWeather, © 2015

Note: Actual official high and low records may vary slightly from our data, if they occured in-between our weather recording intervals... More about our weather records

Advertising

Marburg weather history for previous 24 hours

 ConditionsComfort  
Time TempWeatherWind HumidityBarometerVisibility
6:00 PM
Sat, Aug 29
81 °FOvercast.3 mph58%30.10 "Hg37 mi
5:00 PM81 °FPartly sunny.1 mph57%30.11 "Hg40 mi
4:00 PM81 °FPartly sunny.1 mph62%30.13 "Hg31 mi
3:00 PM78 °FScattered clouds.1 mph62%30.15 "Hg34 mi
2:00 PM74 °FPassing clouds.2 mph64%30.17 "Hg43 mi
1:00 PM73 °FPartly sunny.1 mph65%30.19 "Hg34 mi
12:00 PM69 °FPassing clouds.2 mph69%30.21 "Hg25 mi
11:00 AM64 °FSunny.3 mph75%30.22 "Hg19 mi
10:00 AM60 °FSunny.3 mph86%30.23 "Hg12 mi
9:00 AM54 °FScattered clouds.2 mph97%30.24 "Hg5 mi
8:00 AM52 °FLow clouds.2 mph100%30.24 "Hg5 mi
7:00 AM51 °FLow clouds.1 mph100%30.24 "Hg1 mi
6:00 AM51 °FClear.2 mph100%30.24 "Hg0 mi
5:00 AM50 °FClear.2 mph100%30.22 "Hg0 mi
4:00 AM51 °FClear.1 mph98%30.23 "Hg0 mi
3:00 AM53 °FClear.2 mph97%30.22 "Hg7 mi
2:00 AM53 °FClear.1 mph99%30.22 "Hg1 mi
1:00 AM54 °FClear.1 mph98%30.21 "Hg5 mi
12:00 AM56 °FClear.1 mph95%30.19 "Hg17 mi
11:00 PM
Fri, Aug 28
57 °FClear.1 mph91%30.19 "Hg17 mi
10:00 PM60 °FClear.3 mph87%30.16 "Hg34 mi
9:00 PM62 °FClear.2 mph86%30.14 "Hg37 mi
8:00 PM65 °FSunny.2 mph78%30.12 "Hg43 mi
7:00 PM67 °FPartly sunny.2 mph68%30.10 "Hg43 mi
Weather by CustomWeather, © 2015

See weather overviewHow to use our weather pages